Regional Weather Roundup
Issued by NWS

Home | Current Version | Previous Version | Text Only | Print | Product List | Glossary Off
Versions: 1 2 3 4 5 6 7 8 9 10 11 12 13 14 15 16 17 18 19 20 21 22 23 24 25 26 27 28 29 30 31 32 33 34 35 36 37 38 39 40 41 42 43 44 45 46 47 48 49 50

000
ASUS43 KBIS 281702
RWRND

NORTH DAKOTA REGIONAL WEATHER ROUNDUP
NATIONAL WEATHER SERVICE BISMARCK ND
1200 PM CDT FRI APR 28 2017

NOTE: "FAIR" INDICATES FEW OR NO CLOUDS BELOW 12,000 FEET WITH NO
SIGNIFICANT WEATHER AND/OR OBSTRUCTIONS TO VISIBILITY.


NDZ001>003-009>011-017-281800-
NORTHWEST NORTH DAKOTA

CITY           SKY/WX    TMP DP  RH WIND       PRES   REMARKS
WILLISTON      FAIR      51  25  36 SE6       30.05R
MINOT          FAIR      50  14  23 CALM      30.04R
MINOT AFB      SUNNY     47  16  28 NW5       30.04R
$$

NDZ018>021-031>035-040>046-281800-
SOUTHWEST NORTH DAKOTA

CITY           SKY/WX    TMP DP  RH WIND       PRES   REMARKS
BISMARCK       FAIR      50  18  28 NE12G17   30.04R
DICKINSON      FAIR      45  23  42 E8        30.00R
GARRISON         N/A     47  17  30 NE6       30.04R
HETTINGER ARPT SUNNY     47  25  42 E14       30.00R
$$

NDZ004>008-012>016-024-026-027-054-281800-
NORTHEAST NORTH DAKOTA

CITY           SKY/WX    TMP DP  RH WIND       PRES   REMARKS
GRAND FORKS    SUNNY     47  26  44 N18       29.99R
GRND FRKS AFB  SUNNY     46  23  39 N16       29.99R
DEVILS LAKE    FAIR      46  12  25 N14       30.02R
$$

NDZ022-023-025-028>030-036>039-047>053-281800-
SOUTHEAST NORTH DAKOTA

CITY           SKY/WX    TMP DP  RH WIND       PRES   REMARKS
FARGO          SUNNY     45  28  51 N13       30.00R
JAMESTOWN      FAIR      47  22  37 N16G22    30.00R
$$





USA.gov is the U.S. government's official web portal to all federal, state and local government web resources and services.